User: anonymous   Login
Location: Caltech
(34.1382°N, 118.1253°W)
Time: 20:22:38
(UTC-07:00)
Language:

TMSAT-1 - Orbit

View from above orbital plane
View from above orbital plane
View from above satellite
View from above satellite

Ground track
Ground track

The orbit data is extracted from the following two-line orbital elements,

1 25396U 98043C   15215.89811227  .00000053  00000-0  41221-4 0  9993
2 25396 098.4937 167.7698 0003199 137.8713 289.1060 14.24333400886904
Epoch (UTC): 03 August 2015 21:33:16
Eccentricity: 0.0003199
inclination: 98.4937°
perigee height: 808 km
apogee height: 813 km
right ascension of ascending node: 167.7698°
argument of perigee: 137.8713°
revolutions per day: 14.24333400
mean anomaly at epoch: 289.1060°
orbit number at epoch: 88690

The dashed part of the orbit path shows where the satellite is in the earth's shadow,  

DLR